Powrót do katalogu

STARLINK-36051

AktywnyŁącznośćVLEO
NORAD 66793·PAYLOAD·🇺🇸 United States

Wystrzelony Dec 1, 2025 z Cape Canaveral Space Force Station

Loading…

Następne Przeloty (najbliższe 24 godziny)

TLE

ŚwieżeSource: CelesTrak SupGP

Epoka: Sep 14, 2026, 23:10 UTC

1 66793C 25278C   26257.96576389  .00018856  00000+0  68368-3 0  2578
2 66793  43.0027 125.5645 0001078 259.9038 148.0943 15.27534288    14

Śledź STARLINK-36051 w czasie rzeczywistym z AllMySat

Download on the App Store